Regional Weather Roundup
Issued by NWS Sioux Falls, SD

Home | Current Version | Previous Version | Text Only | Print | Product List | Glossary Off
Versions: 1 2 3 4 5 6 7 8 9 10 11 12 13 14 15 16 17 18 19 20 21 22 23 24 25 26 27 28 29 30 31 32 33 34 35 36 37 38 39 40 41 42 43 44 45 46 47 48 49 50

000
ASUS43 KFSD 261210
RWRFSD

WEATHER ROUNDUP FOR SE SOUTH DAKOTA/SW MINNESOTA/NW IOWA
NATIONAL WEATHER SERVICE SIOUX FALLS SD
700 AM CDT MON JUN 26 2017

NOTE: "FAIR" INDICATES FEW OR NO CLOUDS BELOW 12,000 FEET WITH NO
SIGNIFICANT WEATHER AND OR OBSTRUCTIONS TO VISIBILITY.


SDZ038>040-050-052>070-261300-
SOUTHEAST SOUTH DAKOTA

CITY           SKY/WX    TMP DP  RH WIND       PRES   REMARKS
BROOKINGS      SUNNY     45  45 100 CALM      30.23R
CHAMBERLAIN    CLEAR     53  48  82 N3        30.25R
6HR MIN TEMP:  44; 6HR MAX TEMP:  60;

HURON          SUNNY     47  46  97 NW3       30.24R
6HR MIN TEMP:  43; 6HR MAX TEMP:  54;

MADISON        FAIR      48  48 100 N9        30.23R
MITCHELL       CLEAR     50  49  96 CALM      30.24R
6HR MIN TEMP:  48; 6HR MAX TEMP:  58; 6HR PCP: TRACE;

SIOUX FALLS    MOSUNNY   53  52  96 CALM      30.22R
6HR MIN TEMP:  48; 6HR MAX TEMP:  56; 6HR PCP:  0.02;

WINNER         FAIR      50  45  83 NW3       30.25R
YANKTON        SUNNY     52  50  93 N3        30.22R
$$

MNZ071-072-080-081-089-090-097-098-261300-
SOUTHWEST MINNESOTA

CITY           SKY/WX    TMP DP  RH WIND       PRES   REMARKS
JACKSON        SUNNY     52  46  82 CALM      30.20S
LUVERNE        SUNNY     50  46  87 CALM      30.22R
MARSHALL       SUNNY     49  46  90 NW6       30.23R
6HR MIN TEMP:  45; 6HR MAX TEMP:  51;

MONTEVIDEO     SUNNY     52  46  82 N5        30.22R
PIPESTONE      SUNNY     52  46  82 N6        30.22R
REDWOOD FALLS  SUNNY     51  46  83 NW6       30.20R
TRACY          SUNNY     51  48  87 NW6       30.22S
WINDOM         SUNNY     52  46  82 NW8       30.21R
WORTHINGTON    SUNNY     52  49  89 N8        30.21S
$$

IAZ001>003-012>014-020>022-031-032-NEZ013-014-SDZ071-261300-
NORTHWEST IOWA

CITY           SKY/WX    TMP DP  RH WIND       PRES   REMARKS
CHEROKEE       SUNNY     52  52 100 CALM      30.20R
DENISON        CLOUDY    55  52  88 CALM      30.19F
ESTHERVILLE    SUNNY     52  52 100 W6        30.19R
LE MARS        SUNNY     52  50  93 N6        30.22R
ORANGE CITY    SUNNY     54  52  94 CALM      30.20S
SHELDON        SUNNY     54  52  94 CALM      30.19S
SIOUX CITY     SUNNY     54  53  97 SE3       30.19S
6HR MIN TEMP:  54; 6HR MAX TEMP:  61; 6HR PCP:  0.25;

SPENCER        PTSUNNY   55  52  89 N7        30.20R
6HR MIN TEMP:  48; 6HR MAX TEMP:  56; 6HR PCP:  0.01;

STORM LAKE     SUNNY     54  50  87 CALM      30.20R
$$

ABBREVIATIONS USED IN REMARKS
   TC - TEMPERATURE IN CELSIUS
  WCI - WIND CHILL INDEX
   HX - HEAT INDEX
  VSB - VISIBILITY





USA.gov is the U.S. government's official web portal to all federal, state and local government web resources and services.